CORIOLIS

Last updated on Fri Dec 19 2025 00:03:36 GMT+0000 (Coordinated Universal Time)

1 27640U 03001A 25352.59157199 .00000119 00000+0 76437-4 0 9997 2 27640 98.7139 357.2342 0014318 17.3765 342.7898 14.19874565188592
UTC large
Height (km)
Speed (km/s)
/
Latitude / Longitude
Inclination (degrees)
Orbital Period (minutes)
Azimuth
Elevation
Range (km)
Doppler Factor

Next 0 passes for location: London (51.5072 / 0.1276)

Sorry there are no passes over London.